Weather History for Rockland, ME

Change the Weather History Date:

Thursday, May 23, 2013

  Actual Average Record
Temperature  
Mean Temperature 54 °F -  
Max Temperature 60 °F 57 °F 71 °F (2012)
Min Temperature 48 °F 42 °F 37 °F (2001)
Degree Days  
Heating Degree Days 11    
Growing Degree Days 4 (Base 50)    
Moisture  
Dew Point 52 °F    
Average Humidity 96    
Maximum Humidity 100    
Minimum Humidity 88    
Precipitation  
Precipitation 0.00 in - - ()
Sea Level Pressure  
Sea Level Pressure 29.88 in    
Wind  
Wind Speed 6 mph (South)    
Max Wind Speed 16 mph    
Max Gust Speed 25 mph    
Visibility 5 miles    
Events      
Averages and records for this station are not official NWS values.
T = Trace of Precipitation, MM = Missing Value Source: NWS Daily Summary

Daily Weather History Graph

Daily Weather History Graph

Search for Another Location

Airport:

Trip Planner

Search our weather history database for the weather conditions in past years. The results will help you decide how hot, cold, wet, or windy it might be!

Date:

Astronomy

May. 23, 2013 Rise Set
Actual Time 5:02 AM EDT 8:04 PM EDT
Civil Twilight 4:27 AM EDT 8:39 PM EDT
Nautical Twilight 3:43 AM EDT 9:23 PM EDT
Astronomical Twilight 2:51 AM EDT 10:16 PM EDT
Moon 6:30 PM EDT (5/23) 3:48 AM EDT (5/23)
Length of Visible Light 16h 11m
Length of Day
15h 02m
Waxing Gibbous, 97% of the Moon is Illuminated
May 23
Waxing Gibbous
May 25
Full
May 31
Last Quarter
Jun 8
New
Jun 16
First Quarter

Hourly Weather History & Observations

Time (EDT) Temp. Dew Point Humidity Pressure Visibility Wind Dir Wind Speed Gust Speed Precip Events Conditions
12:15 AM 48.2 °F 46.4 °F 93% 29.96 in 10.0 mi East 5.8 mph - N/A   Overcast
12:35 AM 48.2 °F 46.4 °F 93% 29.94 in 10.0 mi East 6.9 mph - N/A   Overcast
12:55 AM 48.2 °F 46.4 °F 93% 29.94 in 10.0 mi ESE 6.9 mph - N/A   Overcast
1:35 AM 48.2 °F 46.4 °F 93% 29.95 in 5.0 mi ENE 4.6 mph - N/A   Overcast
1:55 AM 48.2 °F 46.4 °F 93% 29.94 in 9.0 mi East 5.8 mph - N/A   Overcast
2:15 AM 48.2 °F 46.4 °F 93% 29.93 in 7.0 mi East 4.6 mph - N/A   Overcast
2:35 AM 48.2 °F 46.4 °F 93% 29.93 in 5.0 mi East 3.5 mph - N/A   Overcast
2:55 AM 48.2 °F 46.4 °F 93% 29.92 in 7.0 mi East 5.8 mph - N/A   Overcast
3:15 AM 48.2 °F 46.4 °F 93% 29.92 in 8.0 mi East 3.5 mph - N/A   Overcast
3:35 AM 48.2 °F 46.4 °F 93% 29.90 in 7.0 mi East 5.8 mph - N/A   Overcast
3:55 AM 48.2 °F 46.4 °F 93% 29.90 in 9.0 mi East 4.6 mph - N/A   Overcast
4:15 AM 48.2 °F 46.4 °F 93% 29.90 in 9.0 mi ESE 6.9 mph - N/A   Overcast
4:35 AM 48.2 °F 46.4 °F 93% 29.90 in 6.0 mi East 6.9 mph - N/A   Overcast
4:56 AM 48.2 °F 48.2 °F 100% 29.89 in 5.0 mi East 5.8 mph - N/A   Overcast
5:15 AM 48.2 °F 46.4 °F 93% 29.90 in 4.0 mi SE 5.8 mph - N/A   Overcast
5:35 AM 48.2 °F 48.2 °F 100% 29.90 in 0.8 mi SE 3.5 mph - N/A   Overcast
5:55 AM 48.2 °F 48.2 °F 100% 29.90 in 0.8 mi SE 3.5 mph - N/A   Overcast
6:15 AM 48.2 °F 48.2 °F 100% 29.91 in 0.5 mi Calm Calm - N/A   Overcast
6:35 AM 48.2 °F 48.2 °F 100% 29.91 in 0.2 mi SSE 3.5 mph - N/A   Overcast
6:55 AM 48.2 °F 48.2 °F 100% 29.91 in 0.5 mi SE 4.6 mph - N/A   Overcast
7:15 AM 48.2 °F 46.4 °F 93% 29.90 in 0.8 mi Calm Calm - N/A   Overcast
7:35 AM 48.2 °F 48.2 °F 100% 29.91 in 1.8 mi SSW 3.5 mph - N/A   Overcast
7:55 AM 50.0 °F 48.2 °F 94% 29.91 in 1.2 mi Calm Calm - N/A   Overcast
8:15 AM 50.0 °F 50.0 °F 100% 29.91 in 2.5 mi Calm Calm - N/A   Overcast
8:36 AM 51.8 °F 50.0 °F 94% 29.91 in 2.0 mi Calm Calm - N/A   Overcast
8:55 AM 51.8 °F 51.8 °F 100% 29.91 in 3.0 mi Calm Calm - N/A   Overcast
9:15 AM 51.8 °F 51.8 °F 100% 29.89 in 7.0 mi Calm Calm - N/A   Overcast
9:35 AM 53.6 °F 53.6 °F 100% 29.89 in 10.0 mi SE 4.6 mph - N/A   Overcast
9:55 AM 53.6 °F 51.8 °F 94% 29.89 in 10.0 mi SSE 3.5 mph - N/A   Unknown
10:15 AM 53.6 °F 51.8 °F 94% 29.89 in 10.0 mi South 4.6 mph - N/A   Overcast
10:35 AM 53.6 °F 51.8 °F 94% 29.89 in 10.0 mi Calm Calm - N/A   Overcast
10:55 AM 55.4 °F 51.8 °F 88% 29.89 in 10.0 mi South 4.6 mph - N/A   Overcast
11:15 AM 55.4 °F 51.8 °F 88% 29.89 in 10.0 mi SSE 5.8 mph - N/A   Overcast
11:35 AM 53.6 °F 51.8 °F 94% 29.89 in 10.0 mi SSE 4.6 mph - N/A   Overcast
11:55 AM 55.4 °F 51.8 °F 88% 29.88 in 10.0 mi SSW 5.8 mph - N/A   Overcast
12:15 PM 55.4 °F 53.6 °F 94% 29.87 in 10.0 mi SSE 6.9 mph - N/A   Overcast
12:35 PM 53.6 °F 51.8 °F 94% 29.88 in 8.0 mi South 4.6 mph - N/A   Overcast
12:55 PM 53.6 °F 51.8 °F 94% 29.88 in 1.2 mi South 6.9 mph - N/A   Overcast
1:15 PM 55.4 °F 53.6 °F 94% 29.87 in 2.5 mi WSW 3.5 mph - N/A   Overcast
1:35 PM 57.2 °F 55.4 °F 94% 29.86 in 3.0 mi South 4.6 mph - N/A   Overcast
1:55 PM 57.2 °F 55.4 °F 94% 29.86 in 2.0 mi SSW 5.8 mph - N/A   Overcast
2:15 PM 55.4 °F 55.4 °F 100% 29.85 in 0.8 mi SSE 5.8 mph - N/A   Overcast
2:35 PM 55.4 °F 55.4 °F 100% 29.85 in 0.5 mi SSW 4.6 mph - N/A   Overcast
2:55 PM 57.2 °F 57.2 °F 100% 29.84 in 0.8 mi South 5.8 mph - N/A   Overcast
3:15 PM 57.2 °F 55.4 °F 94% 29.83 in 1.0 mi South 5.8 mph - N/A   Overcast
3:35 PM 57.2 °F 57.2 °F 100% 29.83 in 1.8 mi South 6.9 mph - N/A   Overcast
3:55 PM 57.2 °F 55.4 °F 94% 29.83 in 2.5 mi South 4.6 mph - N/A   Overcast
4:15 PM 57.2 °F 57.2 °F 100% 29.84 in 5.0 mi SSW 4.6 mph - N/A   Overcast
4:35 PM 57.2 °F 57.2 °F 100% 29.84 in 5.0 mi SSW 6.9 mph - N/A   Overcast
4:55 PM 59.0 °F 57.2 °F 94% 29.84 in 5.0 mi SSW 5.8 mph - N/A   Overcast
5:15 PM 59.0 °F 57.2 °F 94% 29.84 in 5.0 mi SSW 5.8 mph - N/A   Overcast
5:35 PM 60.8 °F 57.2 °F 88% 29.83 in 6.0 mi South 8.1 mph - N/A   Overcast
5:55 PM 57.2 °F 57.2 °F 100% 29.83 in 4.0 mi SSW 6.9 mph - N/A   Overcast
6:15 PM 57.2 °F 57.2 °F 100% 29.83 in 4.0 mi SSW 10.4 mph - N/A   Overcast
6:35 PM 57.2 °F 57.2 °F 100% 29.83 in 3.0 mi SW 8.1 mph - N/A   Overcast
6:55 PM 57.2 °F 57.2 °F 100% 29.84 in 3.0 mi SSW 8.1 mph 16.1 mph N/A   Overcast
7:15 PM 59.0 °F 57.2 °F 94% 29.84 in 4.0 mi SSW 10.4 mph 17.3 mph N/A   Overcast
7:35 PM 57.2 °F 57.2 °F 100% 29.84 in 4.0 mi SSW 11.5 mph 19.6 mph N/A   Overcast
7:55 PM 57.2 °F 57.2 °F 100% 29.84 in 4.0 mi SSW 9.2 mph - N/A   Overcast
8:15 PM 59.0 °F 57.2 °F 94% 29.84 in 5.0 mi SSW 10.4 mph 18.4 mph N/A   Overcast
8:35 PM 59.0 °F 57.2 °F 94% 29.83 in 5.0 mi SSW 15.0 mph 20.7 mph N/A   Overcast
8:55 PM 57.2 °F 55.4 °F 94% 29.84 in 5.0 mi SW 12.7 mph 25.3 mph N/A   Overcast
9:15 PM 57.2 °F 55.4 °F 94% 29.84 in 3.0 mi SW 15.0 mph 21.9 mph N/A   Overcast
9:55 PM 57.2 °F 57.2 °F 100% 29.84 in 2.5 mi SSW 11.5 mph 24.2 mph N/A   Overcast
10:15 PM 57.2 °F 57.2 °F 100% 29.84 in 1.5 mi SSW 15.0 mph 21.9 mph N/A   Overcast
10:35 PM 57.2 °F 57.2 °F 100% 29.83 in 1.2 mi SSW 15.0 mph 20.7 mph N/A   Overcast
10:55 PM 57.2 °F 57.2 °F 100% 29.83 in 2.5 mi SW 12.7 mph 18.4 mph N/A   Overcast
11:15 PM 57.2 °F 57.2 °F 100% 29.83 in 1.8 mi SSW 16.1 mph 20.7 mph N/A   Overcast
11:35 PM 57.2 °F 57.2 °F 100% 29.84 in 1.0 mi SW 12.7 mph 20.7 mph N/A   Overcast
11:55 PM 57.2 °F 57.2 °F 100% 29.83 in 1.5 mi SW 16.1 mph 23.0 mph N/A   Overcast